Weather History for Haleyville, AL

Change the Weather History Date:

Friday, September 28, 2012

  Actual Average (KJFX) Record (KJFX)
Temperature  
Mean Temperature 72 °F -  
Max Temperature 84 °F 78 °F 91 °F (2012)
Min Temperature 59 °F 55 °F 40 °F (1985)
Cooling Degree Days 6    
Growing Degree Days 22 (Base 50)    
Moisture  
Dew Point 64 °F    
Average Humidity 84    
Maximum Humidity 100    
Minimum Humidity 46    
Precipitation  
Precipitation 0.00 in - - ()
Sea Level Pressure  
Sea Level Pressure 30.14 in    
Wind  
Wind Speed 0 mph (WNW)    
Max Wind Speed 6 mph    
Max Gust Speed -    
Visibility 8 miles    
Events      
Averages and records for this station are not official NWS values.
T = Trace of Precipitation, MM = Missing Value Source: NWS Daily Summary

Daily Weather History Graph

Daily Weather History Graph

Search for Another Location

Airport:

Trip Planner

Search our weather history database for the weather conditions in past years. The results will help you decide how hot, cold, wet, or windy it might be!

Date:

Astronomy

Sep. 28, 2012 Rise Set
Actual Time 6:43 AM CDT 6:38 PM CDT
Civil Twilight 6:18 AM CDT 7:03 PM CDT
Nautical Twilight 5:48 AM CDT 7:32 PM CDT
Astronomical Twilight 5:19 AM CDT 8:01 PM CDT
Moon 5:39 PM CDT (9/28) 5:15 AM CDT (9/28)
Length of Visible Light 12h 44m
Length of Day
11h 54m
Waxing Gibbous, 98% of the Moon is Illuminated
Sep 28
Waxing Gibbous
Sep 29
Full
Oct 8
Last Quarter
Oct 15
New
Oct 21
First Quarter

Hourly Weather History & Observations

Time (CDT) Temp. Heat Index Dew Point Humidity Pressure Visibility Wind Dir Wind Speed Gust Speed Precip Events Conditions
12:56 AM 61.9 °F - 61.9 °F 100% 30.18 in 5.0 mi Calm Calm - N/A   Clear
1:56 AM 61.9 °F - 61.9 °F 100% 30.17 in 7.0 mi Calm Calm - N/A   Clear
2:56 AM 61.0 °F - 61.0 °F 100% 30.16 in 5.0 mi Calm Calm - N/A   Clear
3:56 AM 61.9 °F - 61.9 °F 100% 30.16 in 7.0 mi Calm Calm - N/A   Clear
4:56 AM 61.0 °F - 61.0 °F 100% 30.16 in 3.0 mi Calm Calm - N/A   Clear
5:56 AM 59.9 °F - 59.9 °F 100% 30.17 in 4.0 mi Calm Calm - N/A   Clear
6:56 AM 59.9 °F - 59.9 °F 100% 30.17 in 3.0 mi Calm Calm - N/A   Clear
7:03 AM 60.8 °F - 60.8 °F 100% 30.14 in 2.5 mi Calm Calm - N/A   Clear
7:10 AM 60.8 °F - 60.8 °F 100% 30.14 in 4.0 mi Calm Calm - N/A   Clear
7:56 AM 61.9 °F - 61.9 °F 100% 30.18 in 5.0 mi Calm Calm - N/A   Clear
8:56 AM 72.9 °F - 68.0 °F 85% 30.19 in 10.0 mi Calm Calm - N/A   Clear
9:56 AM 75.9 °F - 68.0 °F 76% 30.20 in 10.0 mi Calm Calm - N/A   Clear
10:56 AM 81.0 °F 83.8 °F 68.0 °F 65% 30.20 in 10.0 mi NW 5.8 mph - N/A   Scattered Clouds
11:56 AM 81.9 °F 83.9 °F 65.8 °F 58% 30.18 in 10.0 mi Calm Calm - N/A   Partly Cloudy
12:56 PM 82.9 °F 85.4 °F 66.9 °F 58% 30.16 in 10.0 mi West 3.5 mph - N/A   Partly Cloudy
1:56 PM 83.8 °F 85.6 °F 64.9 °F 53% 30.13 in 10.0 mi Variable 4.6 mph - N/A   Clear
2:56 PM 83.8 °F 85.6 °F 64.9 °F 53% 30.12 in 10.0 mi Calm Calm - N/A   Clear
3:56 PM 84.9 °F 85.4 °F 61.9 °F 46% 30.09 in 10.0 mi Calm Calm - N/A   Clear
4:56 PM 81.9 °F 83.5 °F 64.9 °F 56% 30.09 in 10.0 mi Calm Calm - N/A   Clear
5:56 PM 79.0 °F - 68.9 °F 71% 30.09 in 10.0 mi Calm Calm - N/A   Clear
6:56 PM 72.9 °F - 68.9 °F 87% 30.08 in 10.0 mi Calm Calm - N/A   Clear
7:56 PM 70.9 °F - 66.9 °F 87% 30.10 in 10.0 mi Calm Calm - N/A   Clear
8:56 PM 70.0 °F - 66.9 °F 90% 30.11 in 10.0 mi Calm Calm - N/A   Clear
9:56 PM 68.0 °F - 66.9 °F 96% 30.12 in 10.0 mi Calm Calm - N/A   Clear
10:56 PM 66.9 °F - 65.8 °F 96% 30.12 in 10.0 mi Calm Calm - N/A   Clear
11:56 PM 66.9 °F - 65.8 °F 96% 30.11 in 10.0 mi Calm Calm - N/A   Clear